﻿Дата;Google;AdRiver
2019-04-11;1;0
2019-04-05;1;0
2019-03-22;1;0
2019-03-15;1;0
2019-03-01;1;0
2019-02-25;1;0
2019-02-22;13;13
2019-02-21;21;21
2019-02-20;44;23
2019-02-19;46;24
2019-02-18;28;21
2019-02-17;25;29
2019-02-16;25;33
2019-02-15;27;27
2019-02-14;12;0
2019-02-13;26;0
2019-02-12;4;0
2019-02-11;2;0
2019-02-09;1;0
2019-01-29;1;0
2019-01-19;1;0
2019-01-18;1;0
2019-01-15;1;0
2019-01-13;1;0
2019-01-10;2;0
2019-01-08;1;0
2019-01-07;2;0
2019-01-04;1;0
2019-01-03;2;0
2019-01-02;1;0
2019-01-01;4;0
2018-12-31;3;0
2018-12-30;99;0
2018-12-29;96;0
2018-12-28;124;0
2018-12-27;188;0
2018-12-26;163;0
2018-12-25;169;0
2018-12-24;194;0
2018-12-23;176;0
2018-12-22;151;0
2018-12-21;152;0
2018-12-20;128;0
2018-12-19;102;0
2018-12-18;133;0
2018-12-17;178;0
2018-12-16;199;0
2018-12-15;143;0
2018-12-14;141;0
2018-12-13;203;0
2018-12-12;74;0
2018-12-11;227;0
2018-12-10;5;0
2018-12-08;3;0
2018-12-07;4;0
2018-12-06;2;0
2018-12-05;3;0
2018-12-03;7;0
2018-12-02;1;0
2018-12-01;2;0
2018-11-30;3;0
2018-11-29;7;0
2018-11-28;3;0
2018-11-27;6;0
2018-11-26;115;0
2018-11-25;106;0
2018-11-24;96;0
2018-11-23;127;0
2018-11-22;234;0
2018-11-21;298;0
2018-11-20;308;0
2018-11-19;187;0
2018-11-18;45;0
2018-11-17;9;0
2018-11-16;34;0
2018-11-15;17;0
2018-11-14;27;0
2018-11-13;18;0
2018-11-12;1;0
2018-11-11;2;0
2018-11-10;16;0
2018-11-09;7;0
2018-11-08;6;0
2018-11-07;37;0
2018-11-01;3;0
